Time,TemperatureF,DewpointF,PressureIn,WindDirection,WindDirectionDegrees,WindSpeedMPH,WindSpeedGustMPH,Humidity,HourlyPrecipIn,Conditions,Clouds,dailyrainin,SolarRadiationWatts/m^2,SoftwareType,DateUTC
2013-02-13 00:04:00,41.5,40.0,29.84,NNW,327,1.0,7.0,93,0.06,,,0.00,0,weatherlink.com 1.10,2013-02-13 05:04:00,
2013-02-13 00:19:00,41.4,40.0,29.83,NNW,337,2.0,8.0,94,0.05,,,0.00,0,weatherlink.com 1.10,2013-02-13 05:19:00,
2013-02-13 00:35:00,41.4,39.0,29.82,NNE,20,0.0,5.0,92,0.04,,,0.00,0,weatherlink.com 1.10,2013-02-13 05:35:00,
2013-02-13 00:49:00,41.4,40.0,29.82,NNW,341,1.0,4.0,93,0.01,,,0.00,0,weatherlink.com 1.10,2013-02-13 05:49:00,
2013-02-13 01:04:00,41.3,40.0,29.81,NNW,340,2.0,6.0,94,0.00,,,0.00,0,weatherlink.com 1.10,2013-02-13 06:04:00,
2013-02-13 01:19:00,41.4,39.0,29.80,NNW,340,1.0,4.0,91,0.00,,,0.00,0,weatherlink.com 1.10,2013-02-13 06:19:00,
2013-02-13 01:34:00,41.6,39.0,29.79,NNW,336,2.0,6.0,89,0.00,,,0.00,0,weatherlink.com 1.10,2013-02-13 06:34:00,
2013-02-13 01:50:00,41.7,39.0,29.79,NNW,344,2.0,5.0,89,0.00,,,0.00,0,weatherlink.com 1.10,2013-02-13 06:50:00,
2013-02-13 02:04:00,41.9,39.0,29.79,NNW,338,1.0,4.0,89,0.00,,,0.00,0,weatherlink.com 1.10,2013-02-13 07:04:00,
2013-02-13 02:19:00,42.0,39.0,29.78,NNW,330,3.0,6.0,88,0.00,,,0.00,0,weatherlink.com 1.10,2013-02-13 07:19:00,
2013-02-13 02:34:00,42.2,39.0,29.77,NW,317,0.0,6.0,88,0.00,,,0.00,0,weatherlink.com 1.10,2013-02-13 07:34:00,
2013-02-13 02:50:00,42.2,39.0,29.77,NW,315,0.0,4.0,88,0.00,,,0.00,0,weatherlink.com 1.10,2013-02-13 07:50:00,
2013-02-13 03:04:00,42.2,39.0,29.76,NNW,340,0.0,3.0,89,0.00,,,0.00,0,weatherlink.com 1.10,2013-02-13 08:04:00,
2013-02-13 03:19:00,42.0,40.0,29.76,NNW,340,0.0,2.0,91,0.00,,,0.00,0,weatherlink.com 1.10,2013-02-13 08:19:00,
2013-02-13 03:35:00,41.9,40.0,29.75,NNW,342,0.0,1.0,92,0.00,,,0.00,0,weatherlink.com 1.10,2013-02-13 08:35:00,
2013-02-13 03:50:00,41.8,40.0,29.75,NNW,342,0.0,0.0,93,0.00,,,0.00,0,weatherlink.com 1.10,2013-02-13 08:50:00,
2013-02-13 04:05:00,41.8,40.0,29.75,NNW,342,0.0,0.0,93,0.00,,,0.00,0,weatherlink.com 1.10,2013-02-13 09:05:00,
2013-02-13 04:20:00,41.8,40.0,29.73,NNW,342,0.0,1.0,94,0.00,,,0.00,0,weatherlink.com 1.10,2013-02-13 09:20:00,
2013-02-13 04:35:00,41.9,40.0,29.74,NNW,342,0.0,2.0,92,0.00,,,0.00,0,weatherlink.com 1.10,2013-02-13 09:35:00,
2013-02-13 04:50:00,42.0,40.0,29.72,NNW,342,0.0,3.0,92,0.00,,,0.00,0,weatherlink.com 1.10,2013-02-13 09:50:00,
2013-02-13 05:05:00,42.0,40.0,29.72,NNW,342,1.0,2.0,93,0.00,,,0.00,0,weatherlink.com 1.10,2013-02-13 10:05:00,
2013-02-13 05:20:00,42.0,40.0,29.71,NNW,342,1.0,3.0,92,0.00,,,0.00,0,weatherlink.com 1.10,2013-02-13 10:20:00,
2013-02-13 05:35:00,42.1,40.0,29.70,NNW,342,0.0,3.0,92,0.00,,,0.00,0,weatherlink.com 1.10,2013-02-13 10:35:00,
2013-02-13 05:50:00,42.1,40.0,29.70,NNW,342,1.0,2.0,92,0.00,,,0.00,0,weatherlink.com 1.10,2013-02-13 10:50:00,
2013-02-13 06:05:00,42.2,40.0,29.70,NNW,327,0.0,4.0,92,0.00,,,0.00,0,weatherlink.com 1.10,2013-02-13 11:05:00,
2013-02-13 06:20:00,42.3,40.0,29.70,NNW,331,0.0,4.0,92,0.00,,,0.00,0,weatherlink.com 1.10,2013-02-13 11:20:00,
2013-02-13 06:35:00,42.4,41.0,29.70,NNW,331,0.0,3.0,93,0.00,,,0.00,0,weatherlink.com 1.10,2013-02-13 11:35:00,
2013-02-13 06:50:00,42.4,41.0,29.70,NNW,331,0.0,0.0,93,0.00,,,0.00,0,weatherlink.com 1.10,2013-02-13 11:50:00,
2013-02-13 07:05:00,42.4,41.0,29.71,NW,320,0.0,5.0,93,0.00,,,0.00,0,weatherlink.com 1.10,2013-02-13 12:05:00,
2013-02-13 07:20:00,42.5,41.0,29.71,NW,320,0.0,0.0,93,0.00,,,0.00,0,weatherlink.com 1.10,2013-02-13 12:20:00,
2013-02-13 07:35:00,42.5,41.0,29.70,NW,320,3.0,3.0,93,0.00,,,0.00,0,weatherlink.com 1.10,2013-02-13 12:35:00,
2013-02-13 07:50:00,42.7,41.0,29.70,NW,325,0.0,3.0,93,0.00,,,0.00,0,weatherlink.com 1.10,2013-02-13 12:50:00,
2013-02-13 08:05:00,42.9,41.0,29.69,NW,325,0.0,4.0,93,0.00,,,0.00,9,weatherlink.com 1.10,2013-02-13 13:05:00,
2013-02-13 08:20:00,43.1,41.0,29.70,NW,325,0.0,0.0,93,0.00,,,0.00,7,weatherlink.com 1.10,2013-02-13 13:20:00,
2013-02-13 08:35:00,43.2,41.0,29.71,NW,325,0.0,1.0,93,0.00,,,0.00,18,weatherlink.com 1.10,2013-02-13 13:35:00,
2013-02-13 08:50:00,43.4,42.0,29.71,NW,325,0.0,0.0,94,0.00,,,0.00,14,weatherlink.com 1.10,2013-02-13 13:50:00,
2013-02-13 09:05:00,43.6,42.0,29.73,NW,325,0.0,0.0,93,0.00,,,0.00,16,weatherlink.com 1.10,2013-02-13 14:05:00,
2013-02-13 09:20:00,43.8,42.0,29.71,NW,325,0.0,0.0,93,0.00,,,0.00,16,weatherlink.com 1.10,2013-02-13 14:20:00,
2013-02-13 09:35:00,44.1,43.0,29.71,NW,325,0.0,0.0,94,0.00,,,0.00,19,weatherlink.com 1.10,2013-02-13 14:35:00,
2013-02-13 09:50:00,44.3,43.0,29.71,NW,325,0.0,0.0,94,0.00,,,0.00,28,weatherlink.com 1.10,2013-02-13 14:50:00,
2013-02-13 10:05:00,44.6,43.0,29.70,NW,325,0.0,0.0,94,0.00,,,0.00,35,weatherlink.com 1.10,2013-02-13 15:05:00,
2013-02-13 10:20:00,45.0,44.0,29.71,NW,325,0.0,0.0,96,0.00,,,0.00,81,weatherlink.com 1.10,2013-02-13 15:20:00,
2013-02-13 10:35:00,45.7,45.0,29.71,NW,325,0.0,0.0,96,0.00,,,0.00,76,weatherlink.com 1.10,2013-02-13 15:35:00,
2013-02-13 10:50:00,46.5,45.0,29.71,ENE,73,1.0,3.0,94,0.00,,,0.00,111,weatherlink.com 1.10,2013-02-13 15:50:00,
2013-02-13 11:05:00,47.0,45.0,29.71,NNW,341,0.0,3.0,92,0.00,,,0.00,28,weatherlink.com 1.10,2013-02-13 16:05:00,
2013-02-13 11:21:00,47.3,45.0,29.72,NNW,341,0.0,2.0,90,0.00,,,0.00,40,weatherlink.com 1.10,2013-02-13 16:21:00,
2013-02-13 11:35:00,47.4,45.0,29.72,NE,52,0.0,3.0,90,0.00,,,0.00,23,weatherlink.com 1.10,2013-02-13 16:35:00,
2013-02-13 11:51:00,47.3,45.0,29.72,SSE,151,0.0,4.0,90,0.00,,,0.00,79,weatherlink.com 1.10,2013-02-13 16:51:00,
2013-02-13 12:05:00,47.7,45.0,29.72,NNW,329,0.0,5.0,89,0.00,,,0.00,56,weatherlink.com 1.10,2013-02-13 17:05:00,
2013-02-13 12:20:00,48.1,44.0,29.71,SE,128,3.0,5.0,87,0.00,,,0.00,72,weatherlink.com 1.10,2013-02-13 17:20:00,
2013-02-13 12:35:00,48.3,44.0,29.71,WSW,258,2.0,4.0,86,0.00,,,0.00,134,weatherlink.com 1.10,2013-02-13 17:35:00,
2013-02-13 12:51:00,48.6,44.0,29.70,NNW,342,1.0,3.0,85,0.00,,,0.00,77,weatherlink.com 1.10,2013-02-13 17:51:00,
2013-02-13 13:06:00,48.5,44.0,29.71,East,85,1.0,4.0,85,0.00,,,0.00,72,weatherlink.com 1.10,2013-02-13 18:06:00,
2013-02-13 13:20:00,47.9,44.0,29.70,NW,320,1.0,9.0,85,0.00,,,0.00,37,weatherlink.com 1.10,2013-02-13 18:20:00,
2013-02-13 13:35:00,47.3,44.0,29.71,NNW,335,1.0,3.0,87,0.00,,,0.00,35,weatherlink.com 1.10,2013-02-13 18:35:00,
2013-02-13 13:50:00,47.2,43.0,29.71,NNE,28,0.0,3.0,86,0.00,,,0.00,54,weatherlink.com 1.10,2013-02-13 18:50:00,
2013-02-13 14:06:00,47.5,43.0,29.70,NNW,328,3.0,6.0,84,0.00,,,0.00,44,weatherlink.com 1.10,2013-02-13 19:06:00,
2013-02-13 14:21:00,47.1,42.0,29.71,NW,324,0.0,5.0,83,0.00,,,0.00,19,weatherlink.com 1.10,2013-02-13 19:21:00,
2013-02-13 14:35:00,46.2,42.0,29.72,NNW,342,1.0,8.0,85,0.00,,,0.00,16,weatherlink.com 1.10,2013-02-13 19:35:00,
2013-02-13 14:50:00,45.2,42.0,29.73,ESE,123,1.0,4.0,87,0.00,,,0.00,12,weatherlink.com 1.10,2013-02-13 19:50:00,
2013-02-13 15:06:00,44.5,41.0,29.73,NW,325,1.0,8.0,87,0.00,,,0.00,42,weatherlink.com 1.10,2013-02-13 20:06:00,
2013-02-13 15:21:00,44.4,41.0,29.73,WSW,250,1.0,5.0,87,0.00,,,0.00,28,weatherlink.com 1.10,2013-02-13 20:21:00,
2013-02-13 15:36:00,44.4,41.0,29.74,North,355,2.0,3.0,89,0.01,,,0.01,19,weatherlink.com 1.10,2013-02-13 20:36:00,
2013-02-13 15:50:00,43.8,42.0,29.75,West,280,1.0,3.0,92,0.01,,,0.01,28,weatherlink.com 1.10,2013-02-13 20:50:00,
2013-02-13 16:05:00,43.3,42.0,29.76,WNW,284,0.0,2.0,93,0.01,,,0.01,11,weatherlink.com 1.10,2013-02-13 21:05:00,
2013-02-13 16:20:00,42.9,41.0,29.76,NNW,342,1.0,2.0,94,0.01,,,0.01,11,weatherlink.com 1.10,2013-02-13 21:20:00,
2013-02-13 16:36:00,42.3,40.0,29.76,West,281,0.0,6.0,92,0.00,,,0.01,16,weatherlink.com 1.10,2013-02-13 21:36:00,
2013-02-13 16:51:00,42.1,40.0,29.77,NNW,331,2.0,9.0,91,0.00,,,0.01,12,weatherlink.com 1.10,2013-02-13 21:51:00,
2013-02-13 17:06:00,41.8,39.0,29.79,NE,54,1.0,5.0,88,0.00,,,0.01,11,weatherlink.com 1.10,2013-02-13 22:06:00,
2013-02-13 17:21:00,41.3,38.0,29.80,WSW,257,3.0,7.0,87,0.00,,,0.01,18,weatherlink.com 1.10,2013-02-13 22:21:00,
2013-02-13 17:36:00,41.0,37.0,29.81,NNW,336,3.0,7.0,87,0.00,,,0.01,12,weatherlink.com 1.10,2013-02-13 22:36:00,
2013-02-13 17:51:00,40.4,37.0,29.82,NNE,19,1.0,5.0,86,0.00,,,0.01,5,weatherlink.com 1.10,2013-02-13 22:51:00,
2013-02-13 18:06:00,39.9,36.0,29.83,NNW,342,0.0,4.0,87,0.00,,,0.01,0,weatherlink.com 1.10,2013-02-13 23:06:00,
2013-02-13 18:21:00,39.6,36.0,29.84,NNW,348,2.0,3.0,87,0.00,,,0.01,0,weatherlink.com 1.10,2013-02-13 23:21:00,
2013-02-13 18:36:00,39.3,36.0,29.84,NW,322,1.0,3.0,87,0.00,,,0.01,0,weatherlink.com 1.10,2013-02-13 23:36:00,
2013-02-13 18:51:00,38.9,35.0,29.85,NNE,31,0.0,1.0,87,0.00,,,0.01,0,weatherlink.com 1.10,2013-02-13 23:51:00,
2013-02-13 19:06:00,38.3,35.0,29.86,North,5,0.0,3.0,89,0.00,,,0.01,0,weatherlink.com 1.10,2013-02-14 00:06:00,
2013-02-13 19:21:00,38.1,35.0,29.86,NW,304,0.0,2.0,89,0.00,,,0.01,0,weatherlink.com 1.10,2013-02-14 00:21:00,
2013-02-13 19:36:00,37.6,35.0,29.87,NW,304,1.0,1.0,90,0.00,,,0.01,0,weatherlink.com 1.10,2013-02-14 00:36:00,
2013-02-13 19:51:00,37.3,35.0,29.88,NW,304,0.0,1.0,90,0.00,,,0.01,0,weatherlink.com 1.10,2013-02-14 00:51:00,
2013-02-13 20:06:00,36.9,34.0,29.87,WSW,242,0.0,2.0,90,0.00,,,0.01,0,weatherlink.com 1.10,2013-02-14 01:06:00,
2013-02-13 20:21:00,36.3,34.0,29.88,West,265,1.0,3.0,90,0.00,,,0.01,0,weatherlink.com 1.10,2013-02-14 01:21:00,
2013-02-13 20:36:00,36.0,33.0,29.89,ESE,117,0.0,2.0,90,0.00,,,0.01,0,weatherlink.com 1.10,2013-02-14 01:36:00,
2013-02-13 20:51:00,35.6,33.0,29.89,ENE,76,0.0,3.0,89,0.00,,,0.01,0,weatherlink.com 1.10,2013-02-14 01:51:00,
2013-02-13 21:06:00,35.2,33.0,29.89,ESE,103,0.0,3.0,90,0.00,,,0.01,0,weatherlink.com 1.10,2013-02-14 02:06:00,
2013-02-13 21:21:00,34.8,32.0,29.89,ESE,103,0.0,1.0,89,0.00,,,0.01,0,weatherlink.com 1.10,2013-02-14 02:21:00,
2013-02-13 21:36:00,34.4,32.0,29.90,ESE,103,0.0,1.0,89,0.00,,,0.01,0,weatherlink.com 1.10,2013-02-14 02:36:00,
2013-02-13 21:51:00,34.1,32.0,29.91,ESE,103,0.0,1.0,90,0.00,,,0.01,0,weatherlink.com 1.10,2013-02-14 02:51:00,
2013-02-13 22:06:00,34.2,32.0,29.91,ESE,103,0.0,1.0,91,0.00,,,0.01,0,weatherlink.com 1.10,2013-02-14 03:06:00,
2013-02-13 22:21:00,34.6,32.0,29.92,ESE,103,0.0,1.0,90,0.00,,,0.01,0,weatherlink.com 1.10,2013-02-14 03:21:00,
2013-02-13 22:36:00,34.8,32.0,29.92,ESE,103,0.0,1.0,90,0.00,,,0.01,0,weatherlink.com 1.10,2013-02-14 03:36:00,
2013-02-13 22:51:00,34.7,32.0,29.93,ESE,103,0.0,1.0,89,0.00,,,0.01,0,weatherlink.com 1.10,2013-02-14 03:51:00,
2013-02-13 23:06:00,34.5,32.0,29.93,ESE,103,0.0,1.0,90,0.00,,,0.01,0,weatherlink.com 1.10,2013-02-14 04:06:00,
2013-02-13 23:21:00,34.3,32.0,29.93,ESE,103,0.0,1.0,91,0.00,,,0.01,0,weatherlink.com 1.10,2013-02-14 04:21:00,
2013-02-13 23:37:00,34.3,32.0,29.94,NNW,337,0.0,3.0,91,0.00,,,0.01,0,weatherlink.com 1.10,2013-02-14 04:37:00,